Theta_e
347 341 337 333 342 339 345 345 344 340 341 342 332 327 327 325 324 314 315 314 315 316 316 316 316 316 316 316 315 314 312 313 313 311 323 338 339 342
347 340 342 334 329 337 347 346 344 342 340 344 339 331 327 326 326 321 316 317 316 316 316 317 317 317 316 316 315 313 310 310 312 313 310 319 335 337
348 345 347 343 332 337 340 343 344 344 343 343 340 335 329 329 325 323 323 323 318 318 318 318 318 317 317 316 314 311 307 307 309 312 312 311 310 315
351 347 347 343 342 334 339 339 340 338 346 345 344 336 331 331 331 326 326 325 326 325 319 320 319 318 317 316 314 307 306 306 307 310 312 312 311 311
352 348 348 348 347 344 342 335 335 335 334 344 342 337 333 333 330 326 328 331 328 329 322 319 320 318 317 316 310 308 307 306 306 305 308 311 313 312
345 342 343 340 343 346 346 345 340 336 335 344 341 339 337 335 332 329 332 330 331 332 328 322 320 319 317 314 308 310 307 305 306 306 306 306 310 313
344 347 337 333 335 343 343 342 343 339 336 343 340 339 339 337 335 332 330 330 332 330 326 322 319 318 316 312 311 310 308 306 305 305 306 307 308 306
337 342 336 335 335 340 341 342 342 341 337 337 343 341 340 340 337 335 334 333 331 329 325 322 320 318 317 314 314 312 309 306 305 305 305 308 310 310
331 334 337 333 336 336 342 340 343 338 338 336 338 341 342 341 339 336 335 333 332 329 327 322 320 319 318 316 314 313 310 309 311 306 304 305 306 307
338 336 337 344 337 337 335 339 341 340 336 334 335 335 338 338 340 338 336 333 332 330 326 324 323 321 319 319 316 313 313 315 315 311 311 309 307 305
353 346 344 343 343 338 336 337 338 340 340 336 332 333 332 331 339 338 334 335 331 328 328 326 325 322 321 320 318 314 316 318 316 314 312 311 311 308
352 350 347 346 342 343 336 336 340 340 340 340 337 328 327 325 338 339 335 333 329 328 326 325 323 322 321 317 316 316 317 319 317 316 314 313 312 311
351 351 349 349 348 345 338 337 338 336 340 339 326 324 324 322 338 337 334 332 328 326 326 325 323 321 320 322 318 317 318 320 319 317 315 314 313 312
347 349 351 348 347 348 344 340 339 341 339 337 328 327 329 328 334 335 333 331 330 327 324 324 324 321 320 322 322 321 319 320 319 319 317 314 313 312
348 347 349 349 349 349 348 346 342 341 337 334 332 331 331 330 330 332 331 327 327 325 325 325 323 320 320 320 320 322 321 320 319 319 318 315 313 313
344 345 346 345 344 346 347 346 343 341 338 334 333 333 333 332 332 330 329 328 324 326 326 324 322 321 322 321 321 323 323 322 321 320 319 315 313 312
342 344 345 344 343 342 343 343 342 340 339 335 333 333 333 331 333 332 331 327 325 328 325 323 321 321 322 321 322 322 323 323 323 320 319 315 313 313
335 341 344 342 340 338 338 337 340 340 339 338 335 334 332 332 331 329 328 326 325 327 327 322 320 323 324 324 323 322 322 322 323 322 317 314 314 313
332 334 337 340 342 340 339 338 335 336 338 337 335 333 332 332 331 330 327 325 325 325 329 327 323 321 322 322 321 321 318 319 322 322 316 314 315 313
325 327 330 335 338 339 340 338 338 337 336 335 334 333 332 332 331 330 327 326 325 326 326 327 327 326 323 320 320 319 318 318 319 320 319 315 314 313
320 320 322 325 330 334 337 339 338 337 337 335 334 332 332 331 331 330 329 327 326 325 326 326 326 327 325 323 322 322 322 322 324 324 320 315 315 315
318 318 318 319 323 327 329 332 336 337 335 334 333 333 331 331 330 330 330 329 326 326 325 327 326 327 327 326 324 324 324 324 324 324 320 319 315 313
314 314 314 314 317 319 322 328 333 335 335 335 334 333 331 330 329 328 328 329 328 325 326 326 327 328 327 326 324 323 324 325 324 322 321 318 315 314
Wind_Speed
10 9 10 13 9 7 26 27 16 4 6 17 13 26 21 17 12 14 14 15 14 13 11 9 6 4 1 2 5 7 9 10 12 14 14 16 17 18
13 12 11 10 13 6 18 25 24 16 4 18 20 27 27 21 17 14 15 13 13 12 11 9 7 5 2 2 4 6 8 8 8 10 13 12 12 13
13 13 15 13 12 9 8 13 23 19 12 13 25 27 30 25 21 18 18 15 14 13 12 10 8 6 4 2 3 6 6 6 5 6 9 9 10 9
15 12 8 12 14 15 14 9 9 12 13 14 23 32 33 28 23 22 22 19 16 15 15 13 10 8 6 4 3 3 3 4 4 4 4 5 7 8
4 4 6 6 11 16 15 15 14 10 6 17 15 30 31 28 27 26 23 20 19 16 19 16 13 11 8 6 4 1 2 3 3 3 3 2 1 3
12 8 15 18 13 15 15 14 13 15 7 19 22 29 28 26 26 27 22 21 22 19 25 20 15 13 11 8 5 2 1 2 2 3 3 2 2 3
5 3 14 11 15 16 18 19 18 18 15 20 20 17 23 19 27 26 25 22 16 16 23 21 17 16 15 11 8 4 1 2 2 3 2 2 2 1
33 22 19 11 9 16 14 23 19 26 21 15 23 21 24 28 30 28 25 20 9 22 25 23 20 19 16 15 11 7 2 1 3 3 3 2 2 1
36 30 26 30 18 16 16 25 25 20 17 17 18 12 26 31 34 30 30 26 23 18 31 29 25 23 20 19 16 11 5 2 4 4 2 2 4 5
30 23 23 38 26 23 16 27 23 22 23 19 17 17 12 12 35 35 34 32 25 26 28 16 22 24 23 23 21 15 9 3 1 3 5 3 3 1
27 28 23 24 21 22 22 20 23 24 24 26 23 21 21 16 20 34 28 23 11 14 29 22 14 18 21 22 25 19 13 7 3 0 2 3 6 3
20 21 22 22 23 20 23 24 21 22 23 24 27 28 26 21 22 34 33 29 20 9 22 22 16 16 7 19 26 22 18 14 9 7 4 2 2 5
16 17 14 13 12 17 21 26 28 22 21 22 23 22 22 23 27 33 33 32 32 18 19 28 22 21 12 7 26 26 22 19 16 14 10 6 5 1
13 12 13 12 11 11 15 21 23 21 20 20 24 25 24 25 29 31 29 28 28 28 21 23 27 28 25 11 8 22 26 26 21 16 15 10 10 9
11 10 11 11 11 11 17 16 21 24 22 22 24 26 28 28 28 30 28 24 22 24 22 18 31 25 28 24 18 13 24 27 27 23 19 16 13 12
16 16 15 17 19 17 15 19 20 25 28 27 23 23 27 28 30 31 29 29 28 22 19 21 25 23 27 24 21 15 12 11 18 25 21 18 16 12
14 15 17 17 17 17 18 20 23 27 30 32 28 27 22 27 30 33 33 32 25 25 21 24 25 21 22 25 20 19 16 11 13 16 23 21 18 14
16 14 17 18 19 19 17 19 24 27 30 31 35 36 31 26 28 28 33 33 30 26 28 30 28 22 18 18 21 21 19 18 14 13 22 20 16 11
21 23 19 21 23 21 23 23 22 24 24 27 31 31 30 31 31 25 27 30 28 29 29 31 32 24 13 9 20 27 25 24 21 15 24 21 14 11
23 23 23 23 24 26 27 27 27 25 24 25 27 29 28 29 29 27 27 28 29 27 27 29 33 35 28 20 18 25 26 29 25 24 26 23 16 11
24 25 25 25 26 23 19 25 29 28 26 24 26 28 28 28 29 32 29 32 32 30 29 32 37 41 35 25 19 19 20 25 24 26 27 23 19 16
25 25 25 27 27 26 26 24 21 27 27 25 27 28 28 29 30 32 34 30 33 34 34 30 30 31 31 29 24 21 21 20 22 27 26 26 14 11
28 28 27 27 25 27 30 27 24 22 24 27 31 31 30 30 33 31 32 35 31 33 33 28 31 34 36 33 29 26 26 24 28 33 30 29 24 17
Wind_Direction
251 248 254 242 223 247 215 194 181 176 213 194 183 199 202 199 194 183 177 170 169 167 168 169 167 166 152 23 10 1 355 359 9 18 23 33 40 57
244 242 251 271 242 299 216 210 203 196 193 206 197 196 199 198 196 192 183 183 184 184 185 186 188 196 213 323 349 351 347 350 1 18 30 36 46 59
237 237 258 256 255 262 234 219 220 221 216 212 197 196 194 196 195 198 193 194 195 199 201 202 205 211 224 255 312 338 350 356 351 17 34 43 56 66
236 246 273 270 280 266 267 270 249 221 220 194 190 189 195 201 200 200 204 209 215 218 212 212 214 219 226 232 284 330 360 359 5 14 25 36 52 69
177 76 9 312 299 280 276 269 267 262 243 190 176 188 194 198 198 201 205 214 223 232 221 219 223 220 224 225 242 237 346 357 1 15 16 326 9 76
123 67 357 329 308 285 288 280 269 259 233 191 181 185 188 194 196 196 201 211 222 242 223 222 228 225 220 222 215 215 357 7 11 21 23 350 292 248
129 345 311 249 221 226 220 242 265 257 243 191 183 186 198 191 197 205 209 215 218 222 208 211 211 211 213 215 204 201 315 328 344 358 354 354 357 284
270 240 240 223 262 247 248 220 225 252 241 229 188 197 202 203 205 206 208 203 202 215 207 211 211 210 213 213 209 209 214 295 336 339 340 341 327 351
239 248 232 241 252 252 225 219 237 241 246 240 234 205 210 210 212 207 209 206 213 211 209 211 214 218 221 216 211 212 197 137 23 4 322 293 294 284
235 248 249 249 244 256 238 228 248 248 239 240 242 239 232 237 224 219 213 213 216 221 209 194 214 221 221 220 212 208 200 182 43 71 63 48 13 311
255 253 236 242 253 257 242 234 246 245 239 238 244 246 250 250 224 215 210 199 198 198 206 216 193 199 211 213 208 208 207 220 236 202 131 69 39 28
265 272 264 262 257 259 241 226 227 244 243 241 238 240 248 248 234 219 211 202 194 178 197 198 198 198 174 211 206 210 212 224 230 229 233 225 28 31
276 272 292 289 285 256 238 234 236 252 251 242 241 240 239 235 220 217 217 215 207 208 206 202 204 195 199 177 214 217 222 230 227 229 230 223 216 255
295 290 276 284 279 263 251 247 246 245 244 238 238 234 233 225 217 216 219 223 229 229 217 217 216 210 203 182 184 217 225 230 229 235 228 221 217 224
306 282 271 267 267 260 248 250 244 231 233 231 234 235 235 235 225 216 215 213 218 220 217 221 224 222 208 210 212 209 220 234 230 233 231 224 217 213
313 306 287 274 273 274 258 240 235 229 230 231 232 236 237 226 224 219 216 218 222 222 226 231 219 216 202 208 207 187 199 208 231 233 231 225 215 221
308 297 290 293 284 273 257 255 245 235 235 235 235 234 232 221 215 215 214 215 211 208 203 207 209 214 214 208 198 209 210 223 230 221 212 214 221 237
338 291 276 278 283 279 264 257 254 253 246 238 234 234 233 230 220 207 207 206 206 208 201 201 205 206 207 212 221 217 221 225 230 230 213 211 228 265
348 329 303 290 277 274 268 262 253 250 260 249 236 233 230 229 228 223 207 205 207 204 205 201 200 198 195 215 221 226 225 228 227 222 212 215 229 236
346 335 330 320 304 282 266 259 260 257 252 247 245 241 234 228 222 219 216 210 208 207 203 204 202 204 205 209 212 227 228 236 234 228 221 222 234 237
336 333 328 322 320 314 319 269 259 257 256 249 244 238 234 227 226 224 220 216 211 205 206 208 211 217 216 216 209 222 233 231 243 228 215 217 223 222
335 327 324 321 317 317 315 313 294 259 251 247 246 241 235 226 226 225 222 217 214 212 215 215 212 204 202 203 206 208 222 211 229 226 226 231 209 206
332 331 326 321 315 312 309 309 300 292 276 250 241 242 235 222 225 226 225 224 222 215 214 213 208 200 202 205 204 202 214 221 231 218 220 229 233 244